Regional Weather Roundup
Issued by NWS

Home | Current Version | Previous Version | Text Only | Print | Product List | Glossary On
Versions: 1 2 3 4 5 6 7 8 9 10 11 12 13 14 15 16 17 18 19 20 21 22 23 24 25 26 27 28 29 30 31 32 33 34 35 36 37 38 39 40 41 42 43 44 45 46 47 48 49 50
000
ASUS45 KCYS 251610
RWRWY

WYOMING REGIONAL WEATHER ROUNDUP
NATIONAL WEATHER SERVICE CHEYENNE WY
1000 AM MDT FRI JUL 25 2014

NOTE:  "FAIR" INDICATES FEW OR NO CLOUDS BELOW 12,000 FEET
WITH NO SIGNIFICANT WEATHER AND/OR OBSTRUCTIONS TO VISIBILITY.

WYZ001-251700-
YELLOWSTONE NATIONAL PARK

CITY           SKY/WX    TMP DP  RH WIND       PRES   REMARKS
LK YELLOWSTONE   N/A     55  36  48 VRB5      30.27F
W YELLOWSTONE  NOT AVBL

$$
WYZ002>013-054>058-071-098>099-251700-
NORTHERN WYOMING

CITY           SKY/WX    TMP DP  RH WIND       PRES   REMARKS
JACKSON        SUNNY     59  28  31 CALM      30.19F
CODY           NOT AVBL
GREYBULL       SUNNY     74  38  27 N7        29.99F
WORLAND        SUNNY     72  38  29 N6        30.00F
SHERIDAN       SUNNY     72  52  49 NE5       29.99F
BUFFALO        SUNNY     72  50  45 S17       30.03F
GILLETTE       SUNNY     70  39  32 VRB5      30.03F
HULETT         FAIR      70  37  30 MISG      30.03
NEWCASTLE      FAIR      75  50  41 SE18      30.03

$$
WYZ014>020-022>026-101>103-251700-
CENTRAL WYOMING

CITY           SKY/WX    TMP DP  RH WIND       PRES   REMARKS
BIG PINEY      SUNNY     67  28  23 VRB5      30.23S
PINEDALE       SUNNY     66  32  28 CALM      30.24S
DUBOIS         FAIR      72  19  14 W22G31    30.17S
LANDER         SUNNY     73  24  16 N5        30.07S
RIVERTON       SUNNY     74  36  25 N9        30.07F
CASPER         SUNNY     72  51  47 SE3       30.07F
DOUGLAS        SUNNY     72  46  39 E3        30.07F

$$
WYZ021-027>030-104>119-251700-
SOUTHERN WYOMING

CITY           SKY/WX    TMP DP  RH WIND       PRES   REMARKS
EVANSTON       MOSUNNY   72  38  29 SW10      30.24S
KEMMERER       SUNNY     70  30  23 CALM      30.25S
FORT BRIDGER   FAIR      74  33  21 CALM      30.25S
ROCK SPRINGS   SUNNY     74  36  25 SW8       30.19F
DIXON          FAIR      81  45  27 S17G24    30.22F
RAWLINS        MOSUNNY   80  46  30 SW22G30   30.18F
SARATOGA       FAIR      81  45  28 SW16G22   30.22F
LARAMIE        PTSUNNY   74  46  36 SW16      30.22F
CHEYENNE       PTSUNNY   72  53  51 NE8       30.17R
TORRINGTON     MOSUNNY   74  54  49 VRB7      30.04F
PINE BLUFFS    FAIR      75  55  50 N12       30.10F

$$


USA.gov is the U.S. government's official web portal to all federal, state and local government web resources and services.